Regional Weather Roundup
Issued by NWS Sioux Falls, SD

Home | Current Version | Previous Version | Text Only | Print | Product List | Glossary On
Versions: 1 2 3 4 5 6 7 8 9 10 11 12 13 14 15 16 17 18 19 20 21 22 23 24 25 26 27 28 29 30 31 32 33 34 35 36 37 38 39 40 41 42 43 44 45 46 47 48 49 50
000
ASUS43 KFSD 310010
RWRFSD

WEATHER ROUNDUP FOR SE SOUTH DAKOTA/SW MINNESOTA/NW IOWA
NATIONAL WEATHER SERVICE SIOUX FALLS SD
700 PM CDT SUN AUG 30 2015

NOTE: "FAIR" INDICATES FEW OR NO CLOUDS BELOW 12,000 FEET WITH NO
SIGNIFICANT WEATHER AND OR OBSTRUCTIONS TO VISIBILITY.


SDZ038>040-050-052>070-310100-
SOUTHEAST SOUTH DAKOTA

CITY           SKY/WX    TMP DP  RH WIND       PRES   REMARKS
BROOKINGS      SUNNY     73  64  73 S15       29.89F
CHAMBERLAIN    MOSUNNY   82  66  58 SE9       29.77R
6HR MIN TEMP:  82; 6HR MAX TEMP:  89;

HURON          MOSUNNY   79  69  71 S17G24    29.78S
6HR MIN TEMP:  79; 6HR MAX TEMP:  85;

MADISON        FAIR      72  68  88 S14       29.88F
MITCHELL       SUNNY     79  68  69 S15G26    29.81F
6HR MIN TEMP:  79; 6HR MAX TEMP:  84;

SIOUX FALLS    CLOUDY    73  65  75 S9        29.90F
6HR MIN TEMP:  71; 6HR MAX TEMP:  76;

WINNER         FAIR      90  47  22 S20G28    29.76S
YANKTON        SUNNY     75  66  73 SE13      29.87F
$$

MNZ071-072-080-081-089-090-097-098-310100-
SOUTHWEST MINNESOTA

CITY           SKY/WX    TMP DP  RH WIND       PRES   REMARKS
FAIRMONT       CLEAR     72  63  73 S10G17    29.94F
JACKSON        CLEAR     73  68  83 S12       29.95S
LUVERNE        SUNNY     72  63  73 S9        29.92F
MARSHALL       SUNNY     75  61  60 S12       29.89S
6HR MIN TEMP:  75; 6HR MAX TEMP:  82;

MONTEVIDEO     SUNNY     79  66  65 S10G16    29.87S
PIPESTONE      MOSUNNY   72  64  78 S8        29.91F
REDWOOD FALLS  CLEAR     76  67  73 S10       29.88F
TRACY          SUNNY     75  67  76 S12       29.89S
WINDOM         CLEAR     75  64  69 S10G16    29.93S
WORTHINGTON    SUNNY     72  63  73 S9        29.93F
$$

IAZ001>003-012>014-020>022-031-032-NEZ013-014-SDZ071-310100-
NORTHWEST IOWA

CITY           SKY/WX    TMP DP  RH WIND       PRES   REMARKS
CHEROKEE       MOSUNNY   71  67  89 S9        29.96S
DENISON        CLEAR     72  68  88 S8        29.95F
ESTHERVILLE    CLEAR     71  67  87 S10       29.95F
LE MARS        MOSUNNY   72  66  83 S9G16     29.94F
ORANGE CITY    MOSUNNY   72  66  83 S9        29.94F
SHELDON        MOSUNNY   70  66  88 S8        29.93F
SIOUX CITY     NOT AVBL
SPENCER        CLEAR     72  66  81 S7        29.95S
6HR MIN TEMP:  72; 6HR MAX TEMP:  77;

STORM LAKE     CLEAR     70  66  88 S7        29.97F FOG
$$

ABBREVIATIONS USED IN REMARKS
   TC - TEMPERATURE IN CELSIUS
  WCI - WIND CHILL INDEX
   HX - HEAT INDEX
  VSB - VISIBILITY




USA.gov is the U.S. government's official web portal to all federal, state and local government web resources and services.